NWS Melbourne » East Central Florida Hourly Weather Roundup

MIARWRMLB 000
TTAA00 KMLB 260511
HOURLY WEATHER ROUNDUP AROUND FLORIDA
NATIONAL WEATHER SERVICE OFFICE MELBOURNE FL
100 AM EDT SUN OCT 26 2014
  
CITY           SKY/WX    TMP DP  RH WIND       PRES   REMARKS
MELBOURNE      CLEAR     70  61  73 N10       29.97F                  
FORT PIERCE    CLEAR     68  61  78 NW6       29.95F                  
ORLANDO INTL   CLEAR     64  59  83 N5        30.00F                  
DAYTONA BEACH  CLEAR     57  54  89 SW3       29.99F                  
VERO BEACH     CLEAR     65  60  84 NW8       29.96F                  
$$
...ELSEWHERE ACROSS CENTRAL FLORIDA...
  
CITY           SKY/WX    TMP DP  RH WIND       PRES   REMARKS
PATRICK AFB    CLEAR     71  61  70 N12       29.98F                  
JFK SPACE CTR  CLEAR     62  56  81 N5        29.98F                  
CAPE CANAVERAL CLEAR     67  58  72 NW6       29.97F                  
ORLANDO EXEC   CLEAR     66  58  75 N5        29.99F                  
LEESBURG       CLEAR     57  55  93 CALM      30.01F                  
SANFORD        CLEAR     60  54  80 NW3       29.99F                  
WINTER HAVEN   CLEAR     61  56  83 N3        30.00F                  
OKEECHOBEE       N/A    N/A N/A N/A MISG        N/A                   
TAMPA          CLEAR     64  57  78 N6        30.01S                  
$$
...NORTHERN FLORIDA...
  
CITY           SKY/WX    TMP DP  RH WIND       PRES   REMARKS
DELAND         CLEAR     55  54  94 CALM      30.00F                  
PALM COAST       N/A     54  52  94 CALM      29.99F                  
ST AUGUSTINE   CLEAR     58  52  80 CALM      30.00F                  
OCALA          CLEAR     52  48  87 CALM      30.01S                  
GAINESVILLE    CLEAR     52  50  93 CALM      30.00F                  
JACKSONVILLE   CLEAR     52  52 100 CALM      29.99F                  
TALLAHASSEE    CLEAR     51  45  79 CALM      30.01F                  
$$
...ALONG THE SOUTHEAST COAST TO THE KEYS...
  
CITY           SKY/WX    TMP DP  RH WIND       PRES   REMARKS
STUART         CLEAR     70  63  78 N7        29.95F                  
WEST PALM BCH  CLEAR     67  64  90 NW7       29.93S                  
MIAMI          PTCLDY    72  64  76 NW6       29.94F                  
KEY WEST       HAZE      76  66  71 NE9       29.94F VSB<1/4          
$$
...MARINE REPORTS...
  
STATION/POSITION TIME  TEMP    WIND        PRES    WAVE   SWELL
                       AIR SEA DIR/SP/G            HT/PER HT/PER/DIR
                 (UTC) (F)     (DEG/KT/KT) (MB)    (FT/S) (FT/S/D)
ST AUGUSTINE FP  0500   62     270/  6/  7 1016.0F
20NM E CAPE CANA 0500   74 80  340/ 12/ 16 1014.9F   3/ 7   2/ 60/ 7
120 E NEW SMYRNA 0500   75 81  350/ 12/ 16 1013.9F   4/ 6   2/ 50/ 9
TRIDENT PIER     0500   69 78  340/  5/  7 1014.7F
SEBASTIAN INLET  0500   74     360/ 18     1015.0S
4NM E PORT CANAV 0500      77                N/A     2/ 7
6NM NE FPR INLET 0500      79                N/A     4/ 5   2/ 60/11
SETTLEMENT PT GB 0500   76      30/ 11/ 12 1013.6F
$$
  
 


USA.gov is the U.S. government's official web portal to all federal, state and local government web resources and services.